Year,Month,Day,Hour,Minute,Value (Times are PST for temperature in C)
2015,05,28,00,00,15.40
2015,05,28,00,01,15.30
2015,05,28,00,02,15.30
2015,05,28,00,03,15.30
2015,05,28,00,04,15.30
2015,05,28,00,05,15.30
2015,05,28,00,06,15.30
2015,05,28,00,07,15.20
2015,05,28,00,08,15.30
2015,05,28,00,09,15.20
2015,05,28,00,10,15.20
2015,05,28,00,11,15.20
2015,05,28,00,12,15.20
2015,05,28,00,13,15.20
2015,05,28,00,14,15.10
2015,05,28,00,15,15.10
2015,05,28,00,16,15.10
2015,05,28,00,17,15.00
2015,05,28,00,18,15.00
2015,05,28,00,19,15.00
2015,05,28,00,20,15.00
2015,05,28,00,21,15.00
2015,05,28,00,22,15.00
2015,05,28,00,23,15.00
2015,05,28,00,24,15.00
2015,05,28,00,25,15.00
2015,05,28,00,26,15.00
2015,05,28,00,27,15.00
2015,05,28,00,28,15.00
2015,05,28,00,29,15.00
2015,05,28,00,30,15.00
2015,05,28,00,31,15.00
2015,05,28,00,32,15.00
2015,05,28,00,33,15.00
2015,05,28,00,34,15.00
2015,05,28,00,35,15.00
2015,05,28,00,36,15.00
2015,05,28,00,37,15.00
2015,05,28,00,38,15.00
2015,05,28,00,39,15.00
2015,05,28,00,40,15.00
2015,05,28,00,41,15.00
2015,05,28,00,42,15.00
2015,05,28,00,43,14.90
2015,05,28,00,44,14.90
2015,05,28,00,45,14.80
2015,05,28,00,46,14.80
2015,05,28,00,47,14.80
2015,05,28,00,48,14.80
2015,05,28,00,49,14.70
2015,05,28,00,50,14.70
2015,05,28,00,51,14.70
2015,05,28,00,52,14.70
2015,05,28,00,53,14.60
2015,05,28,00,54,14.60
2015,05,28,00,55,14.60
2015,05,28,00,56,14.60
2015,05,28,00,57,14.60
2015,05,28,00,58,14.50
2015,05,28,00,59,14.50
2015,05,28,01,00,14.50
2015,05,28,01,01,14.50
2015,05,28,01,02,14.40
2015,05,28,01,03,14.40
2015,05,28,01,04,14.40
2015,05,28,01,05,14.40
2015,05,28,01,06,14.40
2015,05,28,01,07,14.40
2015,05,28,01,08,14.40
2015,05,28,01,09,14.40
2015,05,28,01,10,14.40
2015,05,28,01,11,14.30
2015,05,28,01,12,14.30
2015,05,28,01,13,14.30
2015,05,28,01,14,14.30
2015,05,28,01,15,14.30
2015,05,28,01,16,14.30
2015,05,28,01,17,14.30
2015,05,28,01,18,14.30
2015,05,28,01,19,14.30
2015,05,28,01,20,14.30
2015,05,28,01,21,14.30
2015,05,28,01,22,14.30
2015,05,28,01,23,14.30
2015,05,28,01,24,14.30
2015,05,28,01,25,14.30
2015,05,28,01,26,14.30
2015,05,28,01,27,14.20
2015,05,28,01,28,14.20
2015,05,28,01,29,14.20
2015,05,28,01,30,14.20
2015,05,28,01,31,14.20
2015,05,28,01,32,14.20
2015,05,28,01,33,14.20
2015,05,28,01,34,14.10
2015,05,28,01,35,14.10
2015,05,28,01,36,14.10
2015,05,28,01,37,14.10
2015,05,28,01,38,14.10
2015,05,28,01,39,14.00
2015,05,28,01,40,14.00
2015,05,28,01,41,14.00
2015,05,28,01,42,14.00
2015,05,28,01,43,14.00
2015,05,28,01,44,14.00
2015,05,28,01,45,13.90
2015,05,28,01,46,13.90
2015,05,28,01,47,13.90
2015,05,28,01,48,13.90
2015,05,28,01,49,13.90
2015,05,28,01,50,13.90
2015,05,28,01,51,13.90
2015,05,28,01,52,13.90
2015,05,28,01,53,13.80
2015,05,28,01,54,13.80
2015,05,28,01,55,13.80
2015,05,28,01,56,13.80
2015,05,28,01,57,13.70
2015,05,28,01,58,13.70
2015,05,28,01,59,13.70
2015,05,28,02,00,13.70
2015,05,28,02,01,13.60
2015,05,28,02,02,13.60
2015,05,28,02,03,13.60
2015,05,28,02,04,13.60
2015,05,28,02,05,13.50
2015,05,28,02,06,13.50
2015,05,28,02,07,13.50
2015,05,28,02,08,13.40
2015,05,28,02,09,13.40
2015,05,28,02,10,13.30
2015,05,28,02,11,13.30
2015,05,28,02,12,13.30
2015,05,28,02,13,13.30
2015,05,28,02,14,13.30
2015,05,28,02,15,13.20
2015,05,28,02,16,13.20
2015,05,28,02,17,13.20
2015,05,28,02,18,13.20
2015,05,28,02,19,13.20
2015,05,28,02,20,13.20
2015,05,28,02,21,13.10
2015,05,28,02,22,13.10
2015,05,28,02,23,13.10
2015,05,28,02,24,13.10
2015,05,28,02,25,13.10
2015,05,28,02,26,13.10
2015,05,28,02,27,13.00
2015,05,28,02,28,13.00
2015,05,28,02,29,13.00
2015,05,28,02,30,12.90
2015,05,28,02,31,12.90
2015,05,28,02,32,12.90
2015,05,28,02,33,12.90
2015,05,28,02,34,12.80
2015,05,28,02,35,12.80
2015,05,28,02,36,12.80
2015,05,28,02,37,12.80
2015,05,28,02,38,12.80
2015,05,28,02,39,12.70
2015,05,28,02,40,12.70
2015,05,28,02,41,12.70
2015,05,28,02,42,12.70
2015,05,28,02,43,12.70
2015,05,28,02,44,12.70
2015,05,28,02,45,12.70
2015,05,28,02,46,12.70
2015,05,28,02,47,12.70
2015,05,28,02,48,12.60
2015,05,28,02,49,12.60
2015,05,28,02,50,12.60
2015,05,28,02,51,12.60
2015,05,28,02,52,12.60
2015,05,28,02,53,12.60
2015,05,28,02,54,12.60
2015,05,28,02,55,12.50
2015,05,28,02,56,12.50
2015,05,28,02,57,12.50
2015,05,28,02,58,12.50
2015,05,28,02,59,12.60
2015,05,28,03,00,12.60
2015,05,28,03,01,12.60
2015,05,28,03,02,12.50
2015,05,28,03,03,12.50
2015,05,28,03,04,12.50
2015,05,28,03,05,12.50
2015,05,28,03,06,12.50
2015,05,28,03,07,12.50
2015,05,28,03,08,12.50
2015,05,28,03,09,12.50
2015,05,28,03,10,12.40
2015,05,28,03,11,12.40
2015,05,28,03,12,12.40
2015,05,28,03,13,12.40
2015,05,28,03,14,12.40
2015,05,28,03,15,12.40
2015,05,28,03,16,12.40
2015,05,28,03,17,12.40
2015,05,28,03,18,12.30
2015,05,28,03,19,12.30
2015,05,28,03,20,12.30
2015,05,28,03,21,12.30
2015,05,28,03,22,12.30
2015,05,28,03,23,12.30
2015,05,28,03,24,12.30
2015,05,28,03,25,12.30
2015,05,28,03,26,12.20
2015,05,28,03,27,12.20
2015,05,28,03,28,12.20
2015,05,28,03,29,12.20
2015,05,28,03,30,12.20
2015,05,28,03,31,12.10
2015,05,28,03,32,12.10
2015,05,28,03,33,12.10
2015,05,28,03,34,12.10
2015,05,28,03,35,12.10
2015,05,28,03,36,12.10
2015,05,28,03,37,12.00
2015,05,28,03,38,12.00
2015,05,28,03,39,12.00
2015,05,28,03,40,12.00
2015,05,28,03,41,12.00
2015,05,28,03,42,11.90
2015,05,28,03,43,11.90
2015,05,28,03,44,11.90
2015,05,28,03,45,11.90
2015,05,28,03,46,11.90
2015,05,28,03,47,11.90
2015,05,28,03,48,11.90
2015,05,28,03,49,11.90
2015,05,28,03,50,11.80
2015,05,28,03,51,11.80
2015,05,28,03,52,11.80
2015,05,28,03,53,11.80
2015,05,28,03,54,11.80
2015,05,28,03,55,11.80
2015,05,28,03,56,11.80
2015,05,28,03,57,11.80
2015,05,28,03,58,11.80
2015,05,28,03,59,11.80
2015,05,28,04,00,11.70
2015,05,28,04,01,11.70
2015,05,28,04,02,11.70
2015,05,28,04,03,11.70
2015,05,28,04,04,11.70
2015,05,28,04,05,11.70
2015,05,28,04,06,11.70
2015,05,28,04,07,11.60
2015,05,28,04,08,11.60
2015,05,28,04,09,11.60
2015,05,28,04,10,11.60
2015,05,28,04,11,11.60
2015,05,28,04,12,11.60
2015,05,28,04,13,11.60
2015,05,28,04,14,11.60
2015,05,28,04,15,11.60
2015,05,28,04,16,11.60
2015,05,28,04,17,11.60
2015,05,28,04,18,11.60
2015,05,28,04,19,11.50
2015,05,28,04,20,11.50
2015,05,28,04,21,11.50
2015,05,28,04,22,11.50
2015,05,28,04,23,11.50
2015,05,28,04,24,11.40
2015,05,28,04,25,11.40
2015,05,28,04,26,11.40
2015,05,28,04,27,11.40
2015,05,28,04,28,11.40
2015,05,28,04,29,11.40
2015,05,28,04,30,11.40
2015,05,28,04,31,11.40
2015,05,28,04,32,11.30
2015,05,28,04,33,11.30
2015,05,28,04,34,11.30
2015,05,28,04,35,11.30
2015,05,28,04,36,11.30
2015,05,28,04,37,11.30
2015,05,28,04,38,11.30
2015,05,28,04,39,11.30
2015,05,28,04,40,11.20
2015,05,28,04,41,11.20
2015,05,28,04,42,11.20
2015,05,28,04,43,11.20
2015,05,28,04,44,11.20
2015,05,28,04,45,11.20
2015,05,28,04,46,11.10
2015,05,28,04,47,11.10
2015,05,28,04,48,11.10
2015,05,28,04,49,11.10
2015,05,28,04,50,11.10
2015,05,28,04,51,11.10
2015,05,28,04,52,11.10
2015,05,28,04,53,11.00
2015,05,28,04,54,11.00
2015,05,28,04,55,11.00
2015,05,28,04,56,11.00
2015,05,28,04,57,11.00
2015,05,28,04,58,11.00
2015,05,28,04,59,11.00
2015,05,28,05,00,11.00
2015,05,28,05,01,10.90
2015,05,28,05,02,10.90
2015,05,28,05,03,10.90
2015,05,28,05,04,10.90
2015,05,28,05,05,10.90
2015,05,28,05,06,10.90
2015,05,28,05,07,10.90
2015,05,28,05,08,10.80
2015,05,28,05,09,10.80
2015,05,28,05,10,10.80
2015,05,28,05,11,10.80
2015,05,28,05,12,10.80
2015,05,28,05,13,10.80
2015,05,28,05,14,10.80
2015,05,28,05,15,10.80
2015,05,28,05,16,10.80
2015,05,28,05,17,10.80
2015,05,28,05,18,10.80
2015,05,28,05,19,10.80
2015,05,28,05,20,10.80
2015,05,28,05,21,10.80
2015,05,28,05,22,10.80
2015,05,28,05,23,10.80
2015,05,28,05,24,10.80
2015,05,28,05,25,10.80
2015,05,28,05,26,10.80
2015,05,28,05,27,10.80
2015,05,28,05,28,10.80
2015,05,28,05,29,10.70
2015,05,28,05,30,10.70
2015,05,28,05,31,10.70
2015,05,28,05,32,10.70
2015,05,28,05,33,10.70
2015,05,28,05,34,10.70
2015,05,28,05,35,10.70
2015,05,28,05,36,10.70
2015,05,28,05,37,10.70
2015,05,28,05,38,10.70
2015,05,28,05,39,10.70
2015,05,28,05,40,10.70
2015,05,28,05,41,10.60
2015,05,28,05,42,10.60
2015,05,28,05,43,10.60
2015,05,28,05,44,10.60
2015,05,28,05,45,10.60
2015,05,28,05,46,10.60
2015,05,28,05,47,10.60
2015,05,28,05,48,10.60
2015,05,28,05,49,10.60
2015,05,28,05,50,10.60
2015,05,28,05,51,10.60
2015,05,28,05,52,10.60
2015,05,28,05,53,10.60
2015,05,28,05,54,10.50
2015,05,28,05,55,10.50
2015,05,28,05,56,10.50
2015,05,28,05,57,10.50
2015,05,28,05,58,10.50
2015,05,28,05,59,10.50
2015,05,28,06,00,10.40
2015,05,28,06,01,10.40
2015,05,28,06,02,10.40
2015,05,28,06,03,10.40
2015,05,28,06,04,10.40
2015,05,28,06,05,10.40
2015,05,28,06,06,10.40
2015,05,28,06,07,10.40
2015,05,28,06,08,10.40
2015,05,28,06,09,10.40
2015,05,28,06,10,10.40
2015,05,28,06,11,10.40
2015,05,28,06,12,10.40
2015,05,28,06,13,10.40
2015,05,28,06,14,10.40
2015,05,28,06,15,10.40
2015,05,28,06,16,10.40
2015,05,28,06,17,10.40
2015,05,28,06,18,10.40
2015,05,28,06,19,10.40
2015,05,28,06,20,10.40
2015,05,28,06,21,10.40
2015,05,28,06,22,10.40
2015,05,28,06,23,10.40
2015,05,28,06,24,10.40
2015,05,28,06,25,10.40
2015,05,28,06,26,10.40
2015,05,28,06,27,10.40
2015,05,28,06,28,10.40
2015,05,28,06,29,10.40
2015,05,28,06,30,10.40
2015,05,28,06,31,10.40
2015,05,28,06,32,10.40
2015,05,28,06,33,10.40
2015,05,28,06,34,10.40
2015,05,28,06,35,10.40
2015,05,28,06,36,10.40
2015,05,28,06,37,10.40
2015,05,28,06,38,10.40
2015,05,28,06,39,10.40
2015,05,28,06,40,10.40
2015,05,28,06,41,10.40
2015,05,28,06,42,10.40
2015,05,28,06,43,10.40
2015,05,28,06,44,10.40
2015,05,28,06,45,10.40
2015,05,28,06,46,10.40
2015,05,28,06,47,10.50
2015,05,28,06,48,10.50
2015,05,28,06,49,10.50
2015,05,28,06,50,10.50
2015,05,28,06,51,10.50
2015,05,28,06,52,10.50
2015,05,28,06,53,10.50
2015,05,28,06,54,10.50
2015,05,28,06,55,10.60
2015,05,28,06,56,10.60
2015,05,28,06,57,10.60
2015,05,28,06,58,10.60
2015,05,28,06,59,10.70
2015,05,28,07,00,10.70
2015,05,28,07,01,10.70
2015,05,28,07,02,10.70
2015,05,28,07,03,10.80
2015,05,28,07,04,10.80
2015,05,28,07,05,10.80
2015,05,28,07,06,10.90
2015,05,28,07,07,10.90
2015,05,28,07,08,10.90
2015,05,28,07,09,10.90
2015,05,28,07,10,11.00
2015,05,28,07,11,11.00
2015,05,28,07,12,11.10
2015,05,28,07,13,11.10
2015,05,28,07,14,11.20
2015,05,28,07,15,11.20
2015,05,28,07,16,11.20
2015,05,28,07,17,11.30
2015,05,28,07,18,11.30
2015,05,28,07,19,11.40
2015,05,28,07,20,11.40
2015,05,28,07,21,11.40
2015,05,28,07,22,11.50
2015,05,28,07,23,11.50
2015,05,28,07,24,11.60
2015,05,28,07,25,11.70
2015,05,28,07,26,11.70
2015,05,28,07,27,11.80
2015,05,28,07,28,11.80
2015,05,28,07,29,11.90
2015,05,28,07,30,11.90
2015,05,28,07,31,11.90
2015,05,28,07,32,12.00
2015,05,28,07,33,12.10
2015,05,28,07,34,12.10
2015,05,28,07,35,12.10
2015,05,28,07,36,12.10
2015,05,28,07,37,12.10
2015,05,28,07,38,12.20
2015,05,28,07,39,12.20
2015,05,28,07,40,12.20
2015,05,28,07,41,12.30
2015,05,28,07,42,12.30
2015,05,28,07,43,12.40
2015,05,28,07,44,12.40
2015,05,28,07,45,12.40
2015,05,28,07,46,12.50
2015,05,28,07,47,12.50
2015,05,28,07,48,12.60
2015,05,28,07,49,12.60
2015,05,28,07,50,12.60
2015,05,28,07,51,12.70
2015,05,28,07,52,12.70
2015,05,28,07,53,12.80
2015,05,28,07,54,12.80
2015,05,28,07,55,12.90
2015,05,28,07,56,13.00
2015,05,28,07,57,13.00
2015,05,28,07,58,13.10
2015,05,28,07,59,13.20
2015,05,28,08,00,13.30
2015,05,28,08,01,13.40
2015,05,28,08,02,13.60
2015,05,28,08,03,13.70
2015,05,28,08,04,13.80
2015,05,28,08,05,13.90
2015,05,28,08,06,13.90
2015,05,28,08,07,14.00
2015,05,28,08,08,14.30
2015,05,28,08,09,14.40
2015,05,28,08,10,14.60
2015,05,28,08,11,14.70
2015,05,28,08,12,14.70
2015,05,28,08,13,14.80
2015,05,28,08,14,14.90
2015,05,28,08,15,15.00
2015,05,28,08,16,15.00
2015,05,28,08,17,15.00
2015,05,28,08,18,15.00
2015,05,28,08,19,15.00
2015,05,28,08,20,15.00
2015,05,28,08,21,15.00
2015,05,28,08,22,15.00
2015,05,28,08,23,15.10
2015,05,28,08,24,15.20
2015,05,28,08,25,15.20
2015,05,28,08,26,15.30
2015,05,28,08,27,15.40
2015,05,28,08,28,15.40
2015,05,28,08,29,15.50
2015,05,28,08,30,15.60
2015,05,28,08,31,15.60
2015,05,28,08,32,15.70
2015,05,28,08,33,15.70
2015,05,28,08,34,15.80
2015,05,28,08,35,15.90
2015,05,28,08,36,15.90
2015,05,28,08,37,15.90
2015,05,28,08,38,16.00
2015,05,28,08,39,16.00
2015,05,28,08,40,16.10
2015,05,28,08,41,16.20
2015,05,28,08,42,16.20
2015,05,28,08,43,16.30
2015,05,28,08,44,16.30
2015,05,28,08,45,16.30
2015,05,28,08,46,16.40
2015,05,28,08,47,16.40
2015,05,28,08,48,16.40
2015,05,28,08,49,16.50
2015,05,28,08,50,16.50
2015,05,28,08,51,16.60
2015,05,28,08,52,16.60
2015,05,28,08,53,16.60
2015,05,28,08,54,16.70
2015,05,28,08,55,16.80
2015,05,28,08,56,16.80
2015,05,28,08,57,16.80
2015,05,28,08,58,16.90
2015,05,28,08,59,16.90
2015,05,28,09,00,16.90
2015,05,28,09,01,17.00
2015,05,28,09,02,17.10
2015,05,28,09,03,17.20
2015,05,28,09,04,17.20
2015,05,28,09,05,17.30
2015,05,28,09,06,17.40
2015,05,28,09,07,17.50
2015,05,28,09,08,17.60
2015,05,28,09,09,17.60
2015,05,28,09,10,17.70
2015,05,28,09,11,17.80
2015,05,28,09,12,17.80
2015,05,28,09,13,17.90
2015,05,28,09,14,17.90
2015,05,28,09,15,17.90
2015,05,28,09,16,18.00
2015,05,28,09,17,18.00
2015,05,28,09,18,18.10
2015,05,28,09,19,18.20
2015,05,28,09,20,18.20
2015,05,28,09,21,18.20
2015,05,28,09,22,18.30
2015,05,28,09,23,18.40
2015,05,28,09,24,18.50
2015,05,28,09,25,18.50
2015,05,28,09,26,18.60
2015,05,28,09,27,18.70
2015,05,28,09,28,18.80
2015,05,28,09,29,18.90
2015,05,28,09,30,19.00
2015,05,28,09,31,19.10
2015,05,28,09,32,19.20
2015,05,28,09,33,19.20
2015,05,28,09,34,19.30
2015,05,28,09,35,19.30
2015,05,28,09,36,19.40
2015,05,28,09,37,19.50
2015,05,28,09,38,19.60
2015,05,28,09,39,19.70
2015,05,28,09,40,19.70
2015,05,28,09,41,19.70
2015,05,28,09,42,19.70
2015,05,28,09,43,19.80
2015,05,28,09,44,19.90
2015,05,28,09,45,19.90
2015,05,28,09,46,20.00
2015,05,28,09,47,20.10
2015,05,28,09,48,20.10
2015,05,28,09,49,20.10
2015,05,28,09,50,20.00
2015,05,28,09,51,20.00
2015,05,28,09,52,19.90
2015,05,28,09,53,19.80
2015,05,28,09,54,19.80
2015,05,28,09,55,19.80
2015,05,28,09,56,19.70
2015,05,28,09,57,19.70
2015,05,28,09,58,19.70
2015,05,28,09,59,19.70
2015,05,28,10,00,19.70
2015,05,28,10,01,19.80
2015,05,28,10,02,19.80
2015,05,28,10,03,19.80
2015,05,28,10,04,19.80
2015,05,28,10,05,19.70
2015,05,28,10,06,19.70
2015,05,28,10,07,19.70
2015,05,28,10,08,19.70
2015,05,28,10,09,19.80
2015,05,28,10,10,19.80
2015,05,28,10,11,19.80
2015,05,28,10,12,19.90
2015,05,28,10,13,20.00
2015,05,28,10,14,20.00
2015,05,28,10,15,20.10
2015,05,28,10,16,20.10
2015,05,28,10,17,20.20
2015,05,28,10,18,20.20
2015,05,28,10,19,20.20
2015,05,28,10,20,20.20
2015,05,28,10,21,20.20
2015,05,28,10,22,20.30
2015,05,28,10,23,20.30
2015,05,28,10,24,20.40
2015,05,28,10,25,20.50
2015,05,28,10,26,20.60
2015,05,28,10,27,20.60
2015,05,28,10,28,20.70
2015,05,28,10,29,20.70
2015,05,28,10,30,20.70
2015,05,28,10,31,20.70
2015,05,28,10,32,20.70
2015,05,28,10,33,20.80
2015,05,28,10,34,20.80
2015,05,28,10,35,20.90
2015,05,28,10,36,20.90
2015,05,28,10,37,20.90
2015,05,28,10,38,20.80
2015,05,28,10,39,20.80
2015,05,28,10,40,20.80
2015,05,28,10,41,20.80
2015,05,28,10,42,20.80
2015,05,28,10,43,20.80
2015,05,28,10,44,20.80
2015,05,28,10,45,20.80
2015,05,28,10,46,20.90
2015,05,28,10,47,20.90
2015,05,28,10,48,21.00
2015,05,28,10,49,21.10
2015,05,28,10,50,21.10
2015,05,28,10,51,21.20
2015,05,28,10,52,21.20
2015,05,28,10,53,21.30
2015,05,28,10,54,21.40
2015,05,28,10,55,21.40
2015,05,28,10,56,21.50
2015,05,28,10,57,21.60
2015,05,28,10,58,21.60
2015,05,28,10,59,21.70
2015,05,28,11,00,21.80
2015,05,28,11,01,21.80
2015,05,28,11,02,21.80
2015,05,28,11,03,21.90
2015,05,28,11,04,21.90
2015,05,28,11,05,21.90
2015,05,28,11,06,22.00
2015,05,28,11,07,21.90
2015,05,28,11,08,21.90
2015,05,28,11,09,22.00
2015,05,28,11,10,22.00
2015,05,28,11,11,22.00
2015,05,28,11,12,22.00
2015,05,28,11,13,22.00
2015,05,28,11,14,22.10
2015,05,28,11,15,22.10
2015,05,28,11,16,22.20
2015,05,28,11,17,22.30
2015,05,28,11,18,22.40
2015,05,28,11,19,22.50
2015,05,28,11,20,22.60
2015,05,28,11,21,22.60
2015,05,28,11,22,22.50
2015,05,28,11,23,22.40
2015,05,28,11,24,22.40
2015,05,28,11,25,22.30
2015,05,28,11,26,22.20
2015,05,28,11,27,22.10
2015,05,28,11,28,22.10
2015,05,28,11,29,22.00
2015,05,28,11,30,22.10
2015,05,28,11,31,22.10
2015,05,28,11,32,22.20
2015,05,28,11,33,22.30
2015,05,28,11,34,22.40
2015,05,28,11,35,22.50
2015,05,28,11,36,22.60
2015,05,28,11,37,22.70
2015,05,28,11,38,22.60
2015,05,28,11,39,22.60
2015,05,28,11,40,22.60
2015,05,28,11,41,22.60
2015,05,28,11,42,22.60
2015,05,28,11,43,22.60
2015,05,28,11,44,22.60
2015,05,28,11,45,22.60
2015,05,28,11,46,22.60
2015,05,28,11,47,22.60
2015,05,28,11,48,22.60
2015,05,28,11,49,22.60
2015,05,28,11,50,22.60
2015,05,28,11,51,22.70
2015,05,28,11,52,22.70
2015,05,28,11,53,22.70
2015,05,28,11,54,22.70
2015,05,28,11,55,22.70
2015,05,28,11,56,22.70
2015,05,28,11,57,22.70
2015,05,28,11,58,22.80
2015,05,28,11,59,22.90
2015,05,28,12,00,22.90
2015,05,28,12,01,22.90
2015,05,28,12,02,22.90
2015,05,28,12,03,22.90
2015,05,28,12,04,23.00
2015,05,28,12,05,23.00
2015,05,28,12,06,23.10
2015,05,28,12,07,23.10
2015,05,28,12,08,23.10
2015,05,28,12,09,23.10
2015,05,28,12,10,23.10
2015,05,28,12,11,23.10
2015,05,28,12,12,23.20
2015,05,28,12,13,23.20
2015,05,28,12,14,23.30
2015,05,28,12,15,23.30
2015,05,28,12,16,23.40
2015,05,28,12,17,23.40
2015,05,28,12,18,23.50
2015,05,28,12,19,23.50
2015,05,28,12,20,23.60
2015,05,28,12,21,23.60
2015,05,28,12,22,23.60
2015,05,28,12,23,23.60
2015,05,28,12,24,23.60
2015,05,28,12,25,23.60
2015,05,28,12,26,23.60
2015,05,28,12,27,23.70
2015,05,28,12,28,23.60
2015,05,28,12,29,23.60
2015,05,28,12,30,23.60
2015,05,28,12,31,23.60
2015,05,28,12,32,23.60
2015,05,28,12,33,23.60
2015,05,28,12,34,23.60
2015,05,28,12,35,23.70
2015,05,28,12,36,23.70
2015,05,28,12,37,23.70
2015,05,28,12,38,23.70
2015,05,28,12,39,23.70
2015,05,28,12,40,23.70
2015,05,28,12,41,23.80
2015,05,28,12,42,23.80
2015,05,28,12,43,23.80
2015,05,28,12,44,23.90
2015,05,28,12,45,23.90
2015,05,28,12,46,23.90
2015,05,28,12,47,23.80
2015,05,28,12,48,23.80
2015,05,28,12,49,23.80
2015,05,28,12,50,23.80
2015,05,28,12,51,23.80
2015,05,28,12,52,23.80
2015,05,28,12,53,23.90
2015,05,28,12,54,23.90
2015,05,28,12,55,23.90
2015,05,28,12,56,23.90
2015,05,28,12,57,23.90
2015,05,28,12,58,23.90
2015,05,28,12,59,24.00
2015,05,28,13,00,24.00
2015,05,28,13,01,23.90
2015,05,28,13,02,23.90
2015,05,28,13,03,23.90
2015,05,28,13,04,24.00
2015,05,28,13,05,24.00
2015,05,28,13,06,24.00
2015,05,28,13,07,24.10
2015,05,28,13,08,24.10
2015,05,28,13,09,24.20
2015,05,28,13,10,24.30
2015,05,28,13,11,24.30
2015,05,28,13,12,24.40
2015,05,28,13,13,24.50
2015,05,28,13,14,24.50
2015,05,28,13,15,24.60
2015,05,28,13,16,24.60
2015,05,28,13,17,24.70
2015,05,28,13,18,24.70
2015,05,28,13,19,24.70
2015,05,28,13,20,24.70
2015,05,28,13,21,24.70
2015,05,28,13,22,24.70
2015,05,28,13,23,24.70
2015,05,28,13,24,24.70
2015,05,28,13,25,24.70
2015,05,28,13,26,24.70
2015,05,28,13,27,24.60
2015,05,28,13,28,24.60
2015,05,28,13,29,24.60
2015,05,28,13,30,24.60
2015,05,28,13,31,24.60
2015,05,28,13,32,24.60
2015,05,28,13,33,24.60
2015,05,28,13,34,24.60
2015,05,28,13,35,24.70
2015,05,28,13,36,24.70
2015,05,28,13,37,24.70
2015,05,28,13,38,24.70
2015,05,28,13,39,24.80
2015,05,28,13,40,24.80
2015,05,28,13,41,24.90
2015,05,28,13,42,24.90
2015,05,28,13,43,25.00
2015,05,28,13,44,25.00
2015,05,28,13,45,25.10
2015,05,28,13,46,25.20
2015,05,28,13,47,25.20
2015,05,28,13,48,25.20
2015,05,28,13,49,25.20
2015,05,28,13,50,25.10
2015,05,28,13,51,25.00
2015,05,28,13,52,25.00
2015,05,28,13,53,24.90
2015,05,28,13,54,24.90
2015,05,28,13,55,24.90
2015,05,28,13,56,24.90
2015,05,28,13,57,24.80
2015,05,28,13,58,24.90
2015,05,28,13,59,24.80
2015,05,28,14,00,24.80
2015,05,28,14,01,24.90
2015,05,28,14,02,24.90
2015,05,28,14,03,25.00
2015,05,28,14,04,25.00
2015,05,28,14,05,25.00
2015,05,28,14,06,25.00
2015,05,28,14,07,25.00
2015,05,28,14,08,25.00
2015,05,28,14,09,25.10
2015,05,28,14,10,25.10
2015,05,28,14,11,25.10
2015,05,28,14,12,25.10
2015,05,28,14,13,25.10
2015,05,28,14,14,25.10
2015,05,28,14,15,25.10
2015,05,28,14,16,25.10
2015,05,28,14,17,25.10
2015,05,28,14,18,25.10
2015,05,28,14,19,25.10
2015,05,28,14,20,25.10
2015,05,28,14,21,25.10
2015,05,28,14,22,25.20
2015,05,28,14,23,25.30
2015,05,28,14,24,25.30
2015,05,28,14,25,25.30
2015,05,28,14,26,25.20
2015,05,28,14,27,25.20
2015,05,28,14,28,25.20
2015,05,28,14,29,25.20
2015,05,28,14,30,25.20
2015,05,28,14,31,25.20
2015,05,28,14,32,25.20
2015,05,28,14,33,25.20
2015,05,28,14,34,25.20
2015,05,28,14,35,25.30
2015,05,28,14,36,25.40
2015,05,28,14,37,25.50
2015,05,28,14,38,25.60
2015,05,28,14,39,25.60
2015,05,28,14,40,25.70
2015,05,28,14,41,25.70
2015,05,28,14,42,25.70
2015,05,28,14,43,25.70
2015,05,28,14,44,25.70
2015,05,28,14,45,25.60
2015,05,28,14,46,25.60
2015,05,28,14,47,25.60
2015,05,28,14,48,25.50
2015,05,28,14,49,25.50
2015,05,28,14,50,25.50
2015,05,28,14,51,25.60
2015,05,28,14,52,25.60
2015,05,28,14,53,25.60
2015,05,28,14,54,25.60
2015,05,28,14,55,25.60
2015,05,28,14,56,25.60
2015,05,28,14,57,25.50
2015,05,28,14,58,25.60
2015,05,28,14,59,25.60
2015,05,28,15,00,25.60
2015,05,28,15,01,25.60
2015,05,28,15,02,25.60
2015,05,28,15,03,25.70
2015,05,28,15,04,25.70
2015,05,28,15,05,25.70
2015,05,28,15,06,25.70
2015,05,28,15,07,25.70
2015,05,28,15,08,25.70
2015,05,28,15,09,25.80
2015,05,28,15,10,25.80
2015,05,28,15,11,25.80
2015,05,28,15,12,25.90
2015,05,28,15,13,25.90
2015,05,28,15,14,25.90
2015,05,28,15,15,25.80
2015,05,28,15,16,25.80
2015,05,28,15,17,25.80
2015,05,28,15,18,25.80
2015,05,28,15,19,25.70
2015,05,28,15,20,25.70
2015,05,28,15,21,25.70
2015,05,28,15,22,25.70
2015,05,28,15,23,25.70
2015,05,28,15,24,25.70
2015,05,28,15,25,25.80
2015,05,28,15,26,25.70
2015,05,28,15,27,25.70
2015,05,28,15,28,25.70
2015,05,28,15,29,25.60
2015,05,28,15,30,25.50
2015,05,28,15,31,25.50
2015,05,28,15,32,25.40
2015,05,28,15,33,25.50
2015,05,28,15,34,25.50
2015,05,28,15,35,25.50
2015,05,28,15,36,25.50
2015,05,28,15,37,25.60
2015,05,28,15,38,25.60
2015,05,28,15,39,25.70
2015,05,28,15,40,25.70
2015,05,28,15,41,25.70
2015,05,28,15,42,25.70
2015,05,28,15,43,25.70
2015,05,28,15,44,25.70
2015,05,28,15,45,25.60
2015,05,28,15,46,25.60
2015,05,28,15,47,25.70
2015,05,28,15,48,25.70
2015,05,28,15,49,25.70
2015,05,28,15,50,25.70
2015,05,28,15,51,25.70
2015,05,28,15,52,25.80
2015,05,28,15,53,25.70
2015,05,28,15,54,25.70
2015,05,28,15,55,25.70
2015,05,28,15,56,25.70
2015,05,28,15,57,25.70
2015,05,28,15,58,25.70
2015,05,28,15,59,25.70
2015,05,28,16,00,25.70
2015,05,28,16,01,25.80
2015,05,28,16,02,25.80
2015,05,28,16,03,25.80
2015,05,28,16,04,25.90
2015,05,28,16,05,25.90
2015,05,28,16,06,25.90
2015,05,28,16,07,25.90
2015,05,28,16,08,25.90
2015,05,28,16,09,25.80
2015,05,28,16,10,25.80
2015,05,28,16,11,25.80
2015,05,28,16,12,25.80
2015,05,28,16,13,25.80
2015,05,28,16,14,25.80
2015,05,28,16,15,25.80
2015,05,28,16,16,25.80
2015,05,28,16,17,25.80
2015,05,28,16,18,25.80
2015,05,28,16,19,25.80
2015,05,28,16,20,25.90
2015,05,28,16,21,25.90
2015,05,28,16,22,25.90
2015,05,28,16,23,25.90
2015,05,28,16,24,25.80
2015,05,28,16,25,25.80
2015,05,28,16,26,25.70
2015,05,28,16,27,25.70
2015,05,28,16,28,25.60
2015,05,28,16,29,25.60
2015,05,28,16,30,25.60
2015,05,28,16,31,25.50
2015,05,28,16,32,25.50
2015,05,28,16,33,25.40
2015,05,28,16,34,25.40
2015,05,28,16,35,25.40
2015,05,28,16,36,25.50
2015,05,28,16,37,25.50
2015,05,28,16,38,25.50
2015,05,28,16,39,25.50
2015,05,28,16,40,25.50
2015,05,28,16,41,25.50
2015,05,28,16,42,25.60
2015,05,28,16,43,25.60
2015,05,28,16,44,25.60
2015,05,28,16,45,25.50
2015,05,28,16,46,25.50
2015,05,28,16,47,25.50
2015,05,28,16,48,25.50
2015,05,28,16,49,25.50
2015,05,28,16,50,25.50
2015,05,28,16,51,25.50
2015,05,28,16,52,25.60
2015,05,28,16,53,25.60
2015,05,28,16,54,25.60
2015,05,28,16,55,25.70
2015,05,28,16,56,25.70
2015,05,28,16,57,25.70
2015,05,28,16,58,25.70
2015,05,28,16,59,25.60
2015,05,28,17,00,25.50
2015,05,28,17,01,25.40
2015,05,28,17,02,25.40
2015,05,28,17,03,25.30
2015,05,28,17,04,25.30
2015,05,28,17,05,25.30
2015,05,28,17,06,25.30
2015,05,28,17,07,25.30
2015,05,28,17,08,25.30
2015,05,28,17,09,25.30
2015,05,28,17,10,25.30
2015,05,28,17,11,25.30
2015,05,28,17,12,25.30
2015,05,28,17,13,25.40
2015,05,28,17,14,25.30
2015,05,28,17,15,25.30
2015,05,28,17,16,25.30
2015,05,28,17,17,25.30
2015,05,28,17,18,25.20
2015,05,28,17,19,25.20